Year,Month,Day,Hour,Minute,Value (Times are PST for windspeed in km/hr)
2013,03,24,00,00,9.70
2013,03,24,00,01,10.60
2013,03,24,00,02,13.90
2013,03,24,00,03,10.30
2013,03,24,00,04,12.70
2013,03,24,00,05,14.70
2013,03,24,00,06,10.10
2013,03,24,00,07,7.50
2013,03,24,00,08,9.50
2013,03,24,00,09,11.90
2013,03,24,00,10,11.80
2013,03,24,00,11,11.90
2013,03,24,00,12,12.40
2013,03,24,00,13,12.20
2013,03,24,00,14,11.50
2013,03,24,00,15,12.10
2013,03,24,00,16,12.50
2013,03,24,00,17,9.80
2013,03,24,00,18,9.90
2013,03,24,00,19,9.80
2013,03,24,00,20,10.60
2013,03,24,00,21,9.70
2013,03,24,00,22,11.10
2013,03,24,00,23,10.40
2013,03,24,00,24,9.50
2013,03,24,00,25,10.40
2013,03,24,00,26,8.50
2013,03,24,00,27,9.80
2013,03,24,00,28,11.40
2013,03,24,00,29,12.50
2013,03,24,00,30,13.20
2013,03,24,00,31,14.90
2013,03,24,00,32,14.80
2013,03,24,00,33,13.10
2013,03,24,00,34,14.70
2013,03,24,00,35,11.30
2013,03,24,00,36,14.20
2013,03,24,00,37,12.10
2013,03,24,00,38,10.40
2013,03,24,00,39,11.70
2013,03,24,00,40,11.10
2013,03,24,00,41,9.10
2013,03,24,00,42,10.20
2013,03,24,00,43,12.20
2013,03,24,00,44,10.70
2013,03,24,00,45,11.80
2013,03,24,00,46,11.90
2013,03,24,00,47,9.50
2013,03,24,00,48,13.00
2013,03,24,00,49,14.20
2013,03,24,00,50,14.60
2013,03,24,00,51,11.50
2013,03,24,00,52,15.40
2013,03,24,00,53,13.70
2013,03,24,00,54,10.70
2013,03,24,00,55,8.60
2013,03,24,00,56,10.90
2013,03,24,00,57,10.60
2013,03,24,00,58,14.70
2013,03,24,00,59,13.80
2013,03,24,01,00,13.40
2013,03,24,01,01,13.90
2013,03,24,01,02,12.30
2013,03,24,01,03,16.60
2013,03,24,01,04,13.40
2013,03,24,01,05,15.70
2013,03,24,01,06,10.00
2013,03,24,01,07,16.80
2013,03,24,01,08,11.70
2013,03,24,01,09,10.40
2013,03,24,01,10,11.10
2013,03,24,01,11,8.10
2013,03,24,01,12,8.10
2013,03,24,01,13,14.70
2013,03,24,01,14,10.40
2013,03,24,01,15,12.90
2013,03,24,01,16,11.60
2013,03,24,01,17,11.80
2013,03,24,01,18,10.10
2013,03,24,01,19,12.40
2013,03,24,01,20,11.40
2013,03,24,01,21,11.60
2013,03,24,01,22,11.30
2013,03,24,01,23,15.20
2013,03,24,01,24,12.80
2013,03,24,01,25,11.10
2013,03,24,01,26,10.80
2013,03,24,01,27,12.50
2013,03,24,01,28,9.80
2013,03,24,01,29,11.70
2013,03,24,01,30,14.00
2013,03,24,01,31,11.30
2013,03,24,01,32,13.10
2013,03,24,01,33,15.10
2013,03,24,01,34,13.80
2013,03,24,01,35,10.30
2013,03,24,01,36,11.40
2013,03,24,01,37,12.00
2013,03,24,01,38,11.70
2013,03,24,01,39,10.30
2013,03,24,01,40,13.40
2013,03,24,01,41,14.20
2013,03,24,01,42,10.30
2013,03,24,01,43,11.10
2013,03,24,01,44,13.30
2013,03,24,01,45,11.10
2013,03,24,01,46,11.50
2013,03,24,01,47,12.40
2013,03,24,01,48,12.00
2013,03,24,01,49,17.40
2013,03,24,01,50,13.50
2013,03,24,01,51,10.90
2013,03,24,01,52,12.90
2013,03,24,01,53,13.70
2013,03,24,01,54,13.40
2013,03,24,01,55,12.90
2013,03,24,01,56,17.40
2013,03,24,01,57,14.40
2013,03,24,01,58,19.00
2013,03,24,01,59,10.70
2013,03,24,02,00,16.00
2013,03,24,02,01,17.90
2013,03,24,02,02,12.90
2013,03,24,02,03,14.60
2013,03,24,02,04,9.70
2013,03,24,02,05,19.00
2013,03,24,02,06,14.50
2013,03,24,02,07,12.00
2013,03,24,02,08,15.40
2013,03,24,02,09,14.70
2013,03,24,02,10,14.40
2013,03,24,02,11,15.20
2013,03,24,02,12,14.70
2013,03,24,02,13,14.40
2013,03,24,02,14,15.00
2013,03,24,02,15,11.80
2013,03,24,02,16,11.50
2013,03,24,02,17,11.50
2013,03,24,02,18,11.60
2013,03,24,02,19,10.90
2013,03,24,02,20,13.50
2013,03,24,02,21,15.70
2013,03,24,02,22,9.90
2013,03,24,02,23,14.20
2013,03,24,02,24,11.50
2013,03,24,02,25,15.00
2013,03,24,02,26,14.30
2013,03,24,02,27,15.00
2013,03,24,02,28,14.40
2013,03,24,02,29,11.40
2013,03,24,02,30,9.40
2013,03,24,02,31,10.10
2013,03,24,02,32,9.30
2013,03,24,02,33,12.40
2013,03,24,02,34,14.10
2013,03,24,02,35,14.20
2013,03,24,02,36,15.10
2013,03,24,02,37,8.30
2013,03,24,02,38,8.40
2013,03,24,02,39,9.30
2013,03,24,02,40,11.00
2013,03,24,02,41,13.00
2013,03,24,02,42,12.70
2013,03,24,02,43,10.10
2013,03,24,02,44,11.00
2013,03,24,02,45,8.10
2013,03,24,02,46,9.30
2013,03,24,02,47,11.80
2013,03,24,02,48,14.30
2013,03,24,02,49,13.90
2013,03,24,02,50,9.90
2013,03,24,02,51,12.90
2013,03,24,02,52,12.50
2013,03,24,02,53,13.60
2013,03,24,02,54,11.90
2013,03,24,02,55,13.00
2013,03,24,02,56,12.70
2013,03,24,02,57,11.60
2013,03,24,02,58,12.50
2013,03,24,02,59,11.30
2013,03,24,03,00,12.30
2013,03,24,03,01,10.80
2013,03,24,03,02,13.60
2013,03,24,03,03,10.40
2013,03,24,03,04,11.10
2013,03,24,03,05,11.40
2013,03,24,03,06,12.20
2013,03,24,03,07,11.10
2013,03,24,03,08,9.10
2013,03,24,03,09,11.10
2013,03,24,03,10,13.50
2013,03,24,03,11,14.90
2013,03,24,03,12,10.90
2013,03,24,03,13,11.70
2013,03,24,03,14,13.00
2013,03,24,03,15,11.10
2013,03,24,03,16,9.70
2013,03,24,03,17,11.10
2013,03,24,03,18,10.40
2013,03,24,03,19,10.20
2013,03,24,03,20,13.00
2013,03,24,03,21,13.00
2013,03,24,03,22,12.10
2013,03,24,03,23,10.90
2013,03,24,03,24,9.90
2013,03,24,03,25,9.10
2013,03,24,03,26,9.20
2013,03,24,03,27,8.40
2013,03,24,03,28,9.20
2013,03,24,03,29,9.20
2013,03,24,03,30,8.50
2013,03,24,03,31,9.90
2013,03,24,03,32,9.30
2013,03,24,03,33,13.10
2013,03,24,03,34,8.50
2013,03,24,03,35,9.10
2013,03,24,03,36,10.30
2013,03,24,03,37,9.80
2013,03,24,03,38,11.90
2013,03,24,03,39,8.80
2013,03,24,03,40,10.70
2013,03,24,03,41,9.90
2013,03,24,03,42,8.50
2013,03,24,03,43,8.90
2013,03,24,03,44,6.90
2013,03,24,03,45,8.30
2013,03,24,03,46,12.00
2013,03,24,03,47,9.50
2013,03,24,03,48,12.10
2013,03,24,03,49,10.50
2013,03,24,03,50,7.80
2013,03,24,03,51,9.20
2013,03,24,03,52,8.30
2013,03,24,03,53,7.70
2013,03,24,03,54,12.60
2013,03,24,03,55,12.00
2013,03,24,03,56,9.10
2013,03,24,03,57,11.30
2013,03,24,03,58,9.20
2013,03,24,03,59,10.90
2013,03,24,04,00,10.00
2013,03,24,04,01,9.30
2013,03,24,04,02,9.40
2013,03,24,04,03,6.80
2013,03,24,04,04,7.20
2013,03,24,04,05,8.80
2013,03,24,04,06,8.40
2013,03,24,04,07,8.90
2013,03,24,04,08,9.20
2013,03,24,04,09,8.00
2013,03,24,04,10,12.40
2013,03,24,04,11,11.70
2013,03,24,04,12,10.70
2013,03,24,04,13,11.40
2013,03,24,04,14,9.10
2013,03,24,04,15,7.80
2013,03,24,04,16,7.30
2013,03,24,04,17,13.90
2013,03,24,04,18,11.30
2013,03,24,04,19,11.40
2013,03,24,04,20,10.60
2013,03,24,04,21,7.50
2013,03,24,04,22,8.10
2013,03,24,04,23,8.10
2013,03,24,04,24,6.90
2013,03,24,04,25,7.60
2013,03,24,04,26,8.00
2013,03,24,04,27,7.80
2013,03,24,04,28,6.80
2013,03,24,04,29,6.70
2013,03,24,04,30,8.10
2013,03,24,04,31,7.50
2013,03,24,04,32,8.00
2013,03,24,04,33,8.90
2013,03,24,04,34,7.90
2013,03,24,04,35,11.30
2013,03,24,04,36,9.10
2013,03,24,04,37,8.60
2013,03,24,04,38,11.70
2013,03,24,04,39,11.80
2013,03,24,04,40,8.90
2013,03,24,04,41,7.30
2013,03,24,04,42,9.20
2013,03,24,04,43,7.00
2013,03,24,04,44,8.30
2013,03,24,04,45,9.00
2013,03,24,04,46,6.00
2013,03,24,04,47,10.00
2013,03,24,04,48,9.40
2013,03,24,04,49,8.80
2013,03,24,04,50,8.90
2013,03,24,04,51,7.30
2013,03,24,04,52,7.10
2013,03,24,04,53,8.30
2013,03,24,04,54,9.30
2013,03,24,04,55,6.20
2013,03,24,04,56,6.20
2013,03,24,04,57,6.00
2013,03,24,04,58,7.40
2013,03,24,04,59,8.60
2013,03,24,05,00,10.40
2013,03,24,05,01,7.90
2013,03,24,05,02,7.00
2013,03,24,05,03,7.00
2013,03,24,05,04,5.50
2013,03,24,05,05,9.00
2013,03,24,05,06,8.20
2013,03,24,05,07,5.10
2013,03,24,05,08,6.10
2013,03,24,05,09,6.30
2013,03,24,05,10,10.40
2013,03,24,05,11,6.60
2013,03,24,05,12,7.90
2013,03,24,05,13,6.60
2013,03,24,05,14,6.60
2013,03,24,05,15,7.30
2013,03,24,05,16,9.20
2013,03,24,05,17,9.80
2013,03,24,05,18,7.80
2013,03,24,05,19,7.60
2013,03,24,05,20,11.10
2013,03,24,05,21,9.50
2013,03,24,05,22,6.40
2013,03,24,05,23,8.70
2013,03,24,05,24,7.20
2013,03,24,05,25,6.00
2013,03,24,05,26,7.90
2013,03,24,05,27,7.00
2013,03,24,05,28,8.20
2013,03,24,05,29,9.50
2013,03,24,05,30,10.60
2013,03,24,05,31,7.30
2013,03,24,05,32,10.30
2013,03,24,05,33,7.60
2013,03,24,05,34,7.60
2013,03,24,05,35,7.40
2013,03,24,05,36,7.30
2013,03,24,05,37,8.30
2013,03,24,05,38,9.30
2013,03,24,05,39,7.20
2013,03,24,05,40,6.00
2013,03,24,05,41,6.20
2013,03,24,05,42,5.00
2013,03,24,05,43,6.10
2013,03,24,05,44,8.00
2013,03,24,05,45,6.10
2013,03,24,05,46,7.50
2013,03,24,05,47,9.00
2013,03,24,05,48,7.50
2013,03,24,05,49,7.00
2013,03,24,05,50,5.70
2013,03,24,05,51,8.00
2013,03,24,05,52,6.30
2013,03,24,05,53,5.70
2013,03,24,05,54,7.10
2013,03,24,05,55,7.20
2013,03,24,05,56,5.60
2013,03,24,05,57,5.20
2013,03,24,05,58,6.40
2013,03,24,05,59,6.40
2013,03,24,06,00,6.90
2013,03,24,06,01,6.40
2013,03,24,06,02,3.40
2013,03,24,06,03,6.70
2013,03,24,06,04,4.20
2013,03,24,06,05,4.70
2013,03,24,06,06,2.70
2013,03,24,06,07,1.80
2013,03,24,06,08,3.80
2013,03,24,06,09,3.70
2013,03,24,06,10,4.10
2013,03,24,06,11,2.60
2013,03,24,06,12,2.80
2013,03,24,06,13,3.10
2013,03,24,06,14,3.20
2013,03,24,06,15,3.70
2013,03,24,06,16,4.30
2013,03,24,06,17,2.80
2013,03,24,06,18,1.70
2013,03,24,06,19,4.50
2013,03,24,06,20,4.50
2013,03,24,06,21,5.40
2013,03,24,06,22,2.80
2013,03,24,06,23,5.00
2013,03,24,06,24,5.30
2013,03,24,06,25,5.40
2013,03,24,06,26,3.90
2013,03,24,06,27,4.30
2013,03,24,06,28,4.20
2013,03,24,06,29,2.70
2013,03,24,06,30,3.80
2013,03,24,06,31,3.50
2013,03,24,06,32,5.10
2013,03,24,06,33,3.90
2013,03,24,06,34,3.70
2013,03,24,06,35,3.20
2013,03,24,06,36,3.10
2013,03,24,06,37,2.60
2013,03,24,06,38,2.30
2013,03,24,06,39,4.60
2013,03,24,06,40,4.00
2013,03,24,06,41,5.00
2013,03,24,06,42,5.30
2013,03,24,06,43,5.10
2013,03,24,06,44,4.80
2013,03,24,06,45,4.30
2013,03,24,06,46,4.30
2013,03,24,06,47,4.30
2013,03,24,06,48,4.80
2013,03,24,06,49,4.50
2013,03,24,06,50,5.00
2013,03,24,06,51,4.40
2013,03,24,06,52,2.60
2013,03,24,06,53,3.10
2013,03,24,06,54,4.20
2013,03,24,06,55,4.20
2013,03,24,06,56,5.60
2013,03,24,06,57,3.60
2013,03,24,06,58,6.00
2013,03,24,06,59,5.50
2013,03,24,07,00,5.60
2013,03,24,07,01,4.50
2013,03,24,07,02,4.50
2013,03,24,07,03,4.50
2013,03,24,07,04,3.30
2013,03,24,07,05,4.40
2013,03,24,07,06,5.10
2013,03,24,07,07,5.30
2013,03,24,07,08,8.10
2013,03,24,07,09,7.20
2013,03,24,07,10,10.40
2013,03,24,07,11,8.80
2013,03,24,07,12,6.70
2013,03,24,07,13,7.80
2013,03,24,07,14,7.70
2013,03,24,07,15,7.80
2013,03,24,07,16,6.50
2013,03,24,07,17,7.00
2013,03,24,07,18,5.20
2013,03,24,07,19,3.70
2013,03,24,07,20,2.80
2013,03,24,07,21,3.40
2013,03,24,07,22,4.70
2013,03,24,07,23,3.90
2013,03,24,07,24,3.10
2013,03,24,07,25,3.40
2013,03,24,07,26,3.80
2013,03,24,07,27,5.40
2013,03,24,07,28,5.50
2013,03,24,07,29,7.10
2013,03,24,07,30,5.80
2013,03,24,07,31,6.40
2013,03,24,07,32,4.70
2013,03,24,07,33,2.40
2013,03,24,07,34,4.80
2013,03,24,07,35,5.30
2013,03,24,07,36,4.30
2013,03,24,07,37,2.80
2013,03,24,07,38,4.60
2013,03,24,07,39,4.30
2013,03,24,07,40,5.50
2013,03,24,07,41,6.80
2013,03,24,07,42,6.00
2013,03,24,07,43,5.60
2013,03,24,07,44,3.40
2013,03,24,07,45,3.00
2013,03,24,07,46,4.10
2013,03,24,07,47,4.80
2013,03,24,07,48,5.20
2013,03,24,07,49,4.40
2013,03,24,07,50,1.90
2013,03,24,07,51,1.00
2013,03,24,07,52,0.00
2013,03,24,07,53,2.50
2013,03,24,07,54,1.30
2013,03,24,07,55,2.80
2013,03,24,07,56,1.60
2013,03,24,07,57,1.20
2013,03,24,07,58,2.00
2013,03,24,07,59,1.40
2013,03,24,08,00,0.40
2013,03,24,08,01,0.00
2013,03,24,08,02,0.50
2013,03,24,08,03,0.00
2013,03,24,08,04,0.00
2013,03,24,08,05,0.00
2013,03,24,08,06,0.10
2013,03,24,08,07,3.20
2013,03,24,08,08,0.70
2013,03,24,08,09,1.80
2013,03,24,08,10,0.00
2013,03,24,08,11,0.00
2013,03,24,08,12,0.00
2013,03,24,08,13,0.00
2013,03,24,08,14,0.00
2013,03,24,08,15,0.00
2013,03,24,08,16,1.00
2013,03,24,08,17,0.90
2013,03,24,08,18,2.40
2013,03,24,08,19,1.10
2013,03,24,08,20,0.80
2013,03,24,08,21,0.40
2013,03,24,08,22,1.30
2013,03,24,08,23,2.60
2013,03,24,08,24,1.50
2013,03,24,08,25,1.90
2013,03,24,08,26,2.80
2013,03,24,08,27,3.00
2013,03,24,08,28,4.90
2013,03,24,08,29,0.80
2013,03,24,08,30,0.90
2013,03,24,08,31,2.30
2013,03,24,08,32,1.30
2013,03,24,08,33,2.10
2013,03,24,08,34,2.70
2013,03,24,08,35,1.80
2013,03,24,08,36,2.80
2013,03,24,08,37,2.70
2013,03,24,08,38,4.60
2013,03,24,08,39,4.90
2013,03,24,08,40,2.70
2013,03,24,08,41,3.80
2013,03,24,08,42,2.80
2013,03,24,08,43,3.10
2013,03,24,08,44,1.90
2013,03,24,08,45,3.70
2013,03,24,08,46,2.80
2013,03,24,08,47,3.10
2013,03,24,08,48,5.40
2013,03,24,08,49,4.20
2013,03,24,08,50,4.40
2013,03,24,08,51,4.20
2013,03,24,08,52,5.80
2013,03,24,08,53,5.50
2013,03,24,08,54,2.90
2013,03,24,08,55,3.20
2013,03,24,08,56,3.30
2013,03,24,08,57,2.40
2013,03,24,08,58,1.40
2013,03,24,08,59,1.50
2013,03,24,09,00,1.50
2013,03,24,09,01,0.90
2013,03,24,09,02,2.20
2013,03,24,09,03,3.00
2013,03,24,09,04,4.00
2013,03,24,09,05,5.40
2013,03,24,09,06,5.20
2013,03,24,09,07,3.80
2013,03,24,09,08,4.00
2013,03,24,09,09,4.40
2013,03,24,09,10,3.00
2013,03,24,09,11,3.10
2013,03,24,09,12,0.90
2013,03,24,09,13,1.50
2013,03,24,09,14,2.50
2013,03,24,09,15,2.00
2013,03,24,09,16,4.50
2013,03,24,09,17,5.90
2013,03,24,09,18,5.40
2013,03,24,09,19,4.20
2013,03,24,09,20,4.10
2013,03,24,09,21,3.60
2013,03,24,09,22,4.80
2013,03,24,09,23,4.50
2013,03,24,09,24,4.20
2013,03,24,09,25,4.00
2013,03,24,09,26,2.70
2013,03,24,09,27,3.70
2013,03,24,09,28,3.30
2013,03,24,09,29,3.60
2013,03,24,09,30,3.60
2013,03,24,09,31,2.80
2013,03,24,09,32,3.60
2013,03,24,09,33,2.50
2013,03,24,09,34,2.80
2013,03,24,09,35,0.70
2013,03,24,09,36,0.90
2013,03,24,09,37,3.20
2013,03,24,09,38,1.50
2013,03,24,09,39,1.70
2013,03,24,09,40,1.70
2013,03,24,09,41,2.10
2013,03,24,09,42,2.70
2013,03,24,09,43,2.80
2013,03,24,09,44,3.00
2013,03,24,09,45,3.40
2013,03,24,09,46,3.80
2013,03,24,09,47,3.00
2013,03,24,09,48,2.40
2013,03,24,09,49,2.10
2013,03,24,09,50,2.90
2013,03,24,09,51,2.20
2013,03,24,09,52,1.50
2013,03,24,09,53,2.80
2013,03,24,09,54,1.80
2013,03,24,09,55,2.10
2013,03,24,09,56,2.60
2013,03,24,09,57,1.50
2013,03,24,09,58,3.60
2013,03,24,09,59,3.10
2013,03,24,10,00,3.00
2013,03,24,10,01,3.10
2013,03,24,10,02,2.70
2013,03,24,10,03,2.40
2013,03,24,10,04,2.80
2013,03,24,10,05,2.60
2013,03,24,10,06,2.20
2013,03,24,10,07,3.40
2013,03,24,10,08,2.10
2013,03,24,10,09,3.40
2013,03,24,10,10,2.00
2013,03,24,10,11,2.90
2013,03,24,10,12,2.60
2013,03,24,10,13,1.60
2013,03,24,10,14,2.20
2013,03,24,10,15,1.30
2013,03,24,10,16,0.30
2013,03,24,10,17,1.10
2013,03,24,10,18,2.20
2013,03,24,10,19,0.90
2013,03,24,10,20,1.50
2013,03,24,10,21,1.40
2013,03,24,10,22,0.00
2013,03,24,10,23,0.10
2013,03,24,10,24,2.10
2013,03,24,10,25,1.30
2013,03,24,10,26,0.10
2013,03,24,10,27,1.30
2013,03,24,10,28,0.90
2013,03,24,10,29,0.40
2013,03,24,10,30,0.00
2013,03,24,10,31,0.70
2013,03,24,10,32,0.00
2013,03,24,10,33,0.00
2013,03,24,10,34,0.00
2013,03,24,10,35,0.00
2013,03,24,10,36,0.00
2013,03,24,10,37,0.70
2013,03,24,10,38,1.90
2013,03,24,10,39,2.20
2013,03,24,10,40,0.80
2013,03,24,10,41,0.00
2013,03,24,10,42,2.00
2013,03,24,10,43,2.10
2013,03,24,10,44,1.40
2013,03,24,10,45,1.10
2013,03,24,10,46,0.00
2013,03,24,10,47,0.20
2013,03,24,10,48,2.70
2013,03,24,10,49,0.70
2013,03,24,10,50,0.00
2013,03,24,10,51,1.70
2013,03,24,10,52,1.50
2013,03,24,10,53,1.90
2013,03,24,10,54,1.40
2013,03,24,10,55,2.90
2013,03,24,10,56,3.10
2013,03,24,10,57,1.90
2013,03,24,10,58,3.60
2013,03,24,10,59,1.80
2013,03,24,11,00,0.50
2013,03,24,11,01,1.80
2013,03,24,11,02,3.80
2013,03,24,11,03,2.20
2013,03,24,11,04,1.70
2013,03,24,11,05,2.60
2013,03,24,11,06,1.90
2013,03,24,11,07,2.00
2013,03,24,11,08,2.20
2013,03,24,11,09,2.40
2013,03,24,11,10,3.10
2013,03,24,11,11,2.40
2013,03,24,11,12,3.40
2013,03,24,11,13,3.40
2013,03,24,11,14,3.00
2013,03,24,11,15,3.00
2013,03,24,11,16,3.60
2013,03,24,11,17,2.10
2013,03,24,11,18,1.90
2013,03,24,11,19,1.80
2013,03,24,11,20,2.60
2013,03,24,11,21,4.30
2013,03,24,11,22,3.30
2013,03,24,11,23,3.60
2013,03,24,11,24,3.40
2013,03,24,11,25,3.20
2013,03,24,11,26,2.50
2013,03,24,11,27,3.20
2013,03,24,11,28,2.50
2013,03,24,11,29,3.50
2013,03,24,11,30,3.90
2013,03,24,11,31,2.50
2013,03,24,11,32,3.70
2013,03,24,11,33,0.90
2013,03,24,11,34,3.70
2013,03,24,11,35,3.50
2013,03,24,11,36,2.00
2013,03,24,11,37,3.60
2013,03,24,11,38,3.00
2013,03,24,11,39,3.80
2013,03,24,11,40,3.90
2013,03,24,11,41,2.20
2013,03,24,11,42,2.60
2013,03,24,11,43,3.90
2013,03,24,11,44,3.20
2013,03,24,11,45,3.00
2013,03,24,11,46,5.30
2013,03,24,11,47,2.00
2013,03,24,11,48,1.30
2013,03,24,11,49,2.20
2013,03,24,11,50,2.60
2013,03,24,11,51,3.10
2013,03,24,11,52,3.10
2013,03,24,11,53,3.70
2013,03,24,11,54,3.20
2013,03,24,11,55,2.40
2013,03,24,11,56,2.90
2013,03,24,11,57,3.10
2013,03,24,11,58,2.60
2013,03,24,11,59,3.00
2013,03,24,12,00,3.10
2013,03,24,12,01,3.20
2013,03,24,12,02,3.40
2013,03,24,12,03,4.00
2013,03,24,12,04,5.30
2013,03,24,12,05,4.30
2013,03,24,12,06,4.20
2013,03,24,12,07,4.40
2013,03,24,12,08,2.70
2013,03,24,12,09,4.30
2013,03,24,12,10,3.30
2013,03,24,12,11,3.30
2013,03,24,12,12,3.30
2013,03,24,12,13,5.00
2013,03,24,12,14,4.50
2013,03,24,12,15,4.90
2013,03,24,12,16,4.80
2013,03,24,12,17,3.80
2013,03,24,12,18,4.10
2013,03,24,12,19,3.50
2013,03,24,12,20,4.40
2013,03,24,12,21,4.10
2013,03,24,12,22,4.50
2013,03,24,12,23,5.20
2013,03,24,12,24,4.00
2013,03,24,12,25,2.60
2013,03,24,12,26,4.30
2013,03,24,12,27,4.10
2013,03,24,12,28,3.90
2013,03,24,12,29,4.10
2013,03,24,12,30,4.50
2013,03,24,12,31,4.40
2013,03,24,12,32,2.80
2013,03,24,12,33,3.60
2013,03,24,12,34,3.70
2013,03,24,12,35,3.40
2013,03,24,12,36,6.10
2013,03,24,12,37,3.60
2013,03,24,12,38,4.40
2013,03,24,12,39,4.70
2013,03,24,12,40,5.30
2013,03,24,12,41,4.40
2013,03,24,12,42,2.70
2013,03,24,12,43,3.20
2013,03,24,12,44,3.20
2013,03,24,12,45,2.50
2013,03,24,12,46,3.40
2013,03,24,12,47,2.80
2013,03,24,12,48,0.90
2013,03,24,12,49,1.10
2013,03,24,12,50,3.70
2013,03,24,12,51,2.30
2013,03,24,12,52,4.20
2013,03,24,12,53,2.10
2013,03,24,12,54,3.50
2013,03,24,12,55,2.60
2013,03,24,12,56,1.80
2013,03,24,12,57,2.50
2013,03,24,12,58,2.10
2013,03,24,12,59,1.10
2013,03,24,13,00,0.60
2013,03,24,13,01,0.80
2013,03,24,13,02,1.00
2013,03,24,13,03,1.50
2013,03,24,13,04,2.30
2013,03,24,13,05,2.30
2013,03,24,13,06,0.30
2013,03,24,13,07,0.00
2013,03,24,13,08,0.00
2013,03,24,13,09,0.00
2013,03,24,13,10,0.00
2013,03,24,13,11,0.30
2013,03,24,13,12,2.60
2013,03,24,13,13,2.60
2013,03,24,13,14,3.20
2013,03,24,13,15,2.80
2013,03,24,13,16,1.90
2013,03,24,13,17,0.20
2013,03,24,13,18,0.00
2013,03,24,13,19,0.00
2013,03,24,13,20,0.00
2013,03,24,13,21,0.00
2013,03,24,13,22,0.00
2013,03,24,13,23,0.00
2013,03,24,13,24,0.00
2013,03,24,13,25,0.00
2013,03,24,13,26,0.00
2013,03,24,13,27,0.00
2013,03,24,13,28,0.00
2013,03,24,13,29,0.00
2013,03,24,13,30,0.00
2013,03,24,13,31,0.00
2013,03,24,13,32,0.10
2013,03,24,13,33,2.00
2013,03,24,13,34,0.30
2013,03,24,13,35,1.00
2013,03,24,13,36,1.90
2013,03,24,13,37,1.30
2013,03,24,13,38,0.00
2013,03,24,13,39,0.00
2013,03,24,13,40,0.00
2013,03,24,13,41,0.00
2013,03,24,13,42,0.00
2013,03,24,13,43,0.00
2013,03,24,13,44,0.00
2013,03,24,13,45,0.00
2013,03,24,13,46,0.00
2013,03,24,13,47,0.00
2013,03,24,13,48,0.00
2013,03,24,13,49,0.00
2013,03,24,13,50,0.00
2013,03,24,13,51,0.00
2013,03,24,13,52,0.00
2013,03,24,13,53,0.00
2013,03,24,13,54,2.00
2013,03,24,13,55,2.00
2013,03,24,13,56,2.00
2013,03,24,13,57,2.80
2013,03,24,13,58,0.80
2013,03,24,13,59,0.00
2013,03,24,14,00,0.00
2013,03,24,14,01,0.00
2013,03,24,14,02,1.20
2013,03,24,14,03,1.30
2013,03,24,14,04,1.50
2013,03,24,14,05,0.10
2013,03,24,14,06,0.00
2013,03,24,14,07,1.60
2013,03,24,14,08,1.80
2013,03,24,14,09,0.90
2013,03,24,14,10,1.90
2013,03,24,14,11,0.10
2013,03,24,14,12,2.60
2013,03,24,14,13,2.00
2013,03,24,14,14,0.10
2013,03,24,14,15,0.00
2013,03,24,14,16,2.60
2013,03,24,14,17,2.50
2013,03,24,14,18,3.70
2013,03,24,14,19,2.50
2013,03,24,14,20,1.30
2013,03,24,14,21,0.00
2013,03,24,14,22,0.00
2013,03,24,14,23,0.00
2013,03,24,14,24,0.00
2013,03,24,14,25,0.00
2013,03,24,14,26,0.00
2013,03,24,14,27,0.00
2013,03,24,14,28,0.00
2013,03,24,14,29,0.00
2013,03,24,14,30,0.00
2013,03,24,14,31,0.00
2013,03,24,14,32,0.00
2013,03,24,14,33,0.00
2013,03,24,14,34,0.00
2013,03,24,14,35,0.00
2013,03,24,14,36,0.50
2013,03,24,14,37,0.30
2013,03,24,14,38,0.00
2013,03,24,14,39,1.80
2013,03,24,14,40,1.30
2013,03,24,14,41,0.80
2013,03,24,14,42,1.80
2013,03,24,14,43,2.40
2013,03,24,14,44,0.20
2013,03,24,14,45,0.20
2013,03,24,14,46,1.10
2013,03,24,14,47,0.00
2013,03,24,14,48,0.00
2013,03,24,14,49,1.20
2013,03,24,14,50,0.10
2013,03,24,14,51,0.00
2013,03,24,14,52,0.00
2013,03,24,14,53,1.00
2013,03,24,14,54,0.90
2013,03,24,14,55,0.80
2013,03,24,14,56,1.40
2013,03,24,14,57,0.40
2013,03,24,14,58,1.40
2013,03,24,14,59,1.90
2013,03,24,15,00,0.80
2013,03,24,15,01,0.70
2013,03,24,15,02,0.00
2013,03,24,15,03,0.00
2013,03,24,15,04,0.00
2013,03,24,15,05,0.00
2013,03,24,15,06,0.20
2013,03,24,15,07,0.00
2013,03,24,15,08,0.00
2013,03,24,15,09,0.00
2013,03,24,15,10,0.00
2013,03,24,15,11,0.00
2013,03,24,15,12,0.00
2013,03,24,15,13,0.00
2013,03,24,15,14,0.00
2013,03,24,15,15,0.00
2013,03,24,15,16,0.00
2013,03,24,15,17,0.00
2013,03,24,15,18,0.00
2013,03,24,15,19,0.00
2013,03,24,15,20,2.10
2013,03,24,15,21,0.40
2013,03,24,15,22,0.00
2013,03,24,15,23,0.00
2013,03,24,15,24,0.00
2013,03,24,15,25,0.00
2013,03,24,15,26,1.80
2013,03,24,15,27,0.00
2013,03,24,15,28,0.00
2013,03,24,15,29,0.00
2013,03,24,15,30,0.00
2013,03,24,15,31,0.00
2013,03,24,15,32,0.80
2013,03,24,15,33,0.60
2013,03,24,15,34,0.00
2013,03,24,15,35,0.00
2013,03,24,15,36,0.00
2013,03,24,15,37,0.00
2013,03,24,15,38,0.00
2013,03,24,15,39,0.00
2013,03,24,15,40,0.00
2013,03,24,15,41,0.00
2013,03,24,15,42,0.00
2013,03,24,15,43,0.00
2013,03,24,15,44,0.00
2013,03,24,15,45,0.00
2013,03,24,15,46,0.00
2013,03,24,15,47,0.00
2013,03,24,15,48,0.00
2013,03,24,15,49,0.00
2013,03,24,15,50,0.00
2013,03,24,15,51,0.00
2013,03,24,15,52,0.00
2013,03,24,15,53,2.20
2013,03,24,15,54,0.90
2013,03,24,15,55,0.00
2013,03,24,15,56,1.70
2013,03,24,15,57,0.00
2013,03,24,15,58,0.00
2013,03,24,15,59,0.00
2013,03,24,16,00,0.70
2013,03,24,16,01,0.00
2013,03,24,16,02,0.00
2013,03,24,16,03,0.00
2013,03,24,16,04,0.00
2013,03,24,16,05,0.00
2013,03,24,16,06,0.00
2013,03,24,16,07,0.00
2013,03,24,16,08,0.00
2013,03,24,16,09,0.00
2013,03,24,16,10,0.00
2013,03,24,16,11,0.00
2013,03,24,16,12,0.00
2013,03,24,16,13,0.00
2013,03,24,16,14,0.00
2013,03,24,16,15,0.00
2013,03,24,16,16,0.00
2013,03,24,16,17,0.00
2013,03,24,16,18,0.00
2013,03,24,16,19,0.40
2013,03,24,16,20,2.10
2013,03,24,16,21,2.90
2013,03,24,16,22,0.50
2013,03,24,16,23,0.00
2013,03,24,16,24,0.00
2013,03,24,16,25,0.00
2013,03,24,16,26,0.00
2013,03,24,16,27,0.60
2013,03,24,16,28,0.50
2013,03,24,16,29,2.50
2013,03,24,16,30,0.90
2013,03,24,16,31,3.80
2013,03,24,16,32,3.90
2013,03,24,16,33,1.40
2013,03,24,16,34,4.10
2013,03,24,16,35,2.80
2013,03,24,16,36,2.40
2013,03,24,16,37,8.60
2013,03,24,16,38,3.70
2013,03,24,16,39,2.80
2013,03,24,16,40,1.70
2013,03,24,16,41,0.30
2013,03,24,16,42,6.80
2013,03,24,16,43,7.10
2013,03,24,16,44,5.50
2013,03,24,16,45,8.10
2013,03,24,16,46,6.90
2013,03,24,16,47,5.30
2013,03,24,16,48,7.20
2013,03,24,16,49,9.90
2013,03,24,16,50,9.30
2013,03,24,16,51,8.80
2013,03,24,16,52,11.00
2013,03,24,16,53,7.80
2013,03,24,16,54,9.20
2013,03,24,16,55,9.20
2013,03,24,16,56,8.70
2013,03,24,16,57,8.70
2013,03,24,16,58,7.50
2013,03,24,16,59,11.60
2013,03,24,17,00,9.00
2013,03,24,17,01,7.50
2013,03,24,17,02,4.90
2013,03,24,17,03,9.60
2013,03,24,17,04,6.40
2013,03,24,17,05,11.60
2013,03,24,17,06,10.30
2013,03,24,17,07,8.60
2013,03,24,17,08,9.00
2013,03,24,17,09,8.70
2013,03,24,17,10,7.00
2013,03,24,17,11,6.40
2013,03,24,17,12,10.40
2013,03,24,17,13,9.00
2013,03,24,17,14,6.10
2013,03,24,17,15,4.10
2013,03,24,17,16,5.90
2013,03,24,17,17,4.80
2013,03,24,17,18,3.50
2013,03,24,17,19,5.90
2013,03,24,17,20,5.00
2013,03,24,17,21,8.30
2013,03,24,17,22,6.70
2013,03,24,17,23,8.10
2013,03,24,17,24,13.90
2013,03,24,17,25,6.60
2013,03,24,17,26,7.30
2013,03,24,17,27,7.60
2013,03,24,17,28,10.00
2013,03,24,17,29,7.70
2013,03,24,17,30,7.30
2013,03,24,17,31,6.50
2013,03,24,17,32,8.50
2013,03,24,17,33,8.40
2013,03,24,17,34,5.50
2013,03,24,17,35,10.00
2013,03,24,17,36,9.00
2013,03,24,17,37,9.40
2013,03,24,17,38,8.00
2013,03,24,17,39,7.40
2013,03,24,17,40,4.90
2013,03,24,17,41,11.30
2013,03,24,17,42,5.10
2013,03,24,17,43,8.90
2013,03,24,17,44,11.70
2013,03,24,17,45,12.30
2013,03,24,17,46,4.70
2013,03,24,17,47,12.60
2013,03,24,17,48,8.70
2013,03,24,17,49,10.00
2013,03,24,17,50,4.70
2013,03,24,17,51,4.20
2013,03,24,17,52,6.20
2013,03,24,17,53,8.10
2013,03,24,17,54,5.00
2013,03,24,17,55,7.60
2013,03,24,17,56,5.40